Skip Page Navigation
NASA JPL Caltech
NASA Logo - Jet Propulsion Laboratory + View the NASA Portal
+ Center for Near-Earth Object Studies
JPL Home Earth Solar System Stars & Galaxies Technology
JPL Solar System Dynamics
BODIES ORBITS EPHEMERIDES TOOLS PHYSICAL DATA DISCOVERY FAQ SITE MAP
JPL Small-Body Database Browser
Search: [ help ]  
52489 (1995 YG3)
Classification: Main-belt Asteroid          SPK-ID: 2052489
Ephemeris | Orbit Diagram | Orbital Elements | Mission Design | Physical Parameters | Discovery Circumstances ]

[ show orbit diagram ]
Orbital Elements at Epoch 2459000.5 (2020-May-31.0) TDB
Reference: JPL 22 (heliocentric ecliptic J2000)
 Element Value Uncertainty (1-sigma)   Units 
e .1283685107999747 3.2234e-08  
a 2.32395281486715 8.1279e-09 au
q 2.025630452853245 7.7101e-08 au
i 3.085115168771344 5.0088e-06 deg
node 331.0826565631674 6.1498e-05 deg
peri 68.09005778706037 6.4635e-05 deg
M 14.65439893707846 1.9729e-05 deg
tp 2458947.824957433875
(2020-Apr-08.32495743)
7.0845e-05 TDB
period 1294.015224044758
3.54
6.7886e-06
1.859e-08
d
yr
n .2782038366401383 1.4595e-09 deg/d
Q 2.622275176881056 9.1713e-09 au
  Orbit Determination Parameters
   # obs. used (total)      1029  
   data-arc span      9075 days (24.85 yr)  
   first obs. used      1995-12-26  
   last obs. used      2020-10-30  
   planetary ephem.      DE431  
   SB-pert. ephem.      SB431-N16  
   condition code      0  
   norm. resid. RMS      .54656  
   source      ORB  
   producer      Otto Matic  
   solution date      2020-Nov-12 23:17:31  

Additional Information
 Earth MOID = 1.03556 au 
 Jupiter MOID = 2.76487 au 
 T_jup = 3.563 
[ show covariance matrix ]

Ephemeris | Orbit Diagram | Orbital Elements | Mission Design | Physical Parameters | Discovery Circumstances ]

Physical Parameter Table
Parameter Symbol Value Units Sigma Reference Notes
absolute magnitude H 15.4   n/a MPO296519  
diameter diameter 1.940 km 0.592 urn:nasa:pds:neowise_diameters_albedos::2.0[mainbelt] (http://adsabs.harvard.edu/abs/2011ApJ...741...68M)  
geometric albedo albedo 0.170   0.097 urn:nasa:pds:neowise_diameters_albedos::2.0[mainbelt] (http://adsabs.harvard.edu/abs/2011ApJ...741...68M)  

52489 (1995 YG3)          Discovered 1995-Dec-26 by Kobayashi, T. at Oizumi
Reference: 20030216/Numbers.arcLast Updated: 2004-04-19

Alternate Designations
 1995 YG3 = 1998 RG59 
Ephemeris | Orbit Diagram | Orbital Elements | Mission Design | Physical Parameters | Discovery Circumstances ]
ABOUT SSD CREDITS/AWARDS PRIVACY/COPYRIGHT GLOSSARY LINKS
FirstGov 2020-Dec-05 03:56 UT
(server date/time)  
NASA Home Page
Site Manager:   Ryan S. Park
Webmaster  Alan B. Chamberlin